Wind_Speed
73 75 74 73 73 70 70 71 67 67 66 64 65 66 69 52 47 39 38 37 37 38 37 35 35 36 38 39 41 41 39 34 34 31 29 24 30 31 31 31 34 36 39 41 44 43 48
76 76 80 77 73 74 76 66 63 62 63 64 64 62 66 51 43 37 39 39 35 33 33 31 33 33 34 37 38 38 36 33 32 31 26 21 27 28 28 31 31 35 39 41 44 47 48
78 81 85 78 80 76 76 63 56 60 62 61 67 64 58 42 41 39 41 38 31 27 27 28 28 31 32 33 34 34 35 34 34 32 25 21 24 29 31 31 32 35 37 41 42 45 47
81 84 88 82 82 81 71 60 55 57 54 58 58 59 47 39 38 43 39 30 26 22 22 21 22 22 24 28 30 33 35 32 34 29 26 29 29 31 32 31 32 33 34 40 41 44 48
88 87 89 87 83 83 62 58 56 55 51 50 54 51 43 37 40 36 29 24 20 18 15 14 16 18 21 24 27 30 33 35 33 29 27 29 29 30 34 35 34 34 31 32 38 47 50
92 94 92 89 88 84 59 55 57 52 46 45 48 44 37 39 34 26 20 16 13 12 11 12 14 16 20 22 27 30 32 35 31 28 28 27 27 25 28 28 28 30 31 35 36 40 45
98 101 98 85 85 78 58 51 53 53 38 41 43 36 34 37 21 15 12 13 12 12 13 13 15 18 19 21 23 25 25 23 22 23 23 20 20 24 26 28 32 31 30 31 37 41 44
106 97 89 78 71 69 51 51 48 46 35 36 36 32 32 29 14 11 12 14 15 14 14 15 17 19 23 24 26 25 24 23 26 26 24 23 27 29 29 29 29 30 30 28 31 34 36
98 85 77 74 67 59 43 53 46 42 30 33 31 31 31 22 14 14 12 13 13 14 15 16 16 18 20 23 24 26 25 25 25 24 24 26 26 27 28 30 29 27 24 25 28 30 29
81 73 66 70 72 59 46 55 44 35 27 29 25 30 30 19 15 15 14 15 14 15 16 16 17 18 20 22 22 21 22 23 23 25 26 26 25 25 25 23 23 23 23 24 24 24 24
70 74 70 70 65 61 47 57 39 32 24 24 24 27 32 19 17 15 15 15 15 15 15 16 18 19 21 20 21 22 21 22 22 22 22 21 21 22 23 24 21 20 19 18 18 17 18
67 69 69 67 62 59 51 52 35 31 23 22 25 27 29 22 19 17 17 19 18 19 19 18 18 19 19 19 20 22 21 20 20 18 18 19 19 20 19 17 15 15 16 15 14 13 16
72 72 68 65 60 56 50 51 38 34 24 24 27 27 24 25 21 18 18 18 18 21 20 21 22 23 22 23 20 19 19 19 19 18 17 19 18 16 16 14 13 14 12 11 13 14 14
84 73 71 66 63 54 54 46 34 34 24 26 29 30 26 27 22 21 21 20 20 21 23 23 22 23 22 23 20 19 19 18 16 16 15 14 13 14 15 15 14 13 11 10 9 8 8
89 72 71 69 66 56 54 47 35 36 26 27 32 31 29 27 24 24 22 22 23 23 25 24 23 22 20 18 18 16 15 14 15 15 14 15 17 16 14 12 10 10 10 7 6 5 6
79 73 69 71 69 58 51 51 39 40 30 30 37 35 33 28 27 25 24 25 25 24 23 21 19 18 19 20 18 18 18 16 16 15 15 16 15 14 13 13 11 8 5 3 5 8 11
69 66 66 71 66 57 51 48 44 38 37 37 40 37 32 30 30 27 25 25 23 23 22 21 21 20 19 19 18 17 14 14 14 14 15 14 15 15 13 9 6 3 5 7 9 11 13
67 65 59 61 62 57 51 47 46 43 43 43 41 36 32 33 30 29 27 25 24 24 22 21 20 20 20 18 14 13 14 15 16 17 17 16 13 11 9 6 5 7 10 12 12 14 16
67 55 56 60 56 59 51 50 49 50 47 46 43 39 35 35 33 32 30 27 26 26 25 24 24 23 20 18 15 15 16 17 19 19 19 17 14 10 6 6 9 13 15 16 17 19 21
56 52 50 52 53 54 51 52 55 53 51 49 48 40 38 37 36 35 33 29 28 29 27 27 26 24 21 16 15 16 16 19 19 19 17 14 11 9 9 12 15 17 19 19 20 22 24
55 51 49 51 52 53 55 57 57 56 51 52 46 38 41 37 36 35 33 30 30 29 28 28 25 22 19 17 16 18 19 20 19 17 15 13 12 12 14 17 18 20 22 24 26 27 29
53 54 53 53 56 58 60 62 59 56 52 53 45 43 43 44 40 39 35 33 31 28 27 28 25 22 19 16 15 15 15 15 15 15 15 15 17 18 19 19 21 23 27 26 29 30 29
56 57 56 58 60 62 64 62 60 52 55 52 48 48 47 44 39 37 36 35 31 29 28 27 25 22 18 18 16 15 15 16 17 19 20 20 20 20 22 22 22 29 30 29 31 30 35
57 57 60 63 65 67 65 62 56 59 56 52 51 49 46 43 41 41 39 35 31 29 27 26 26 24 21 20 20 21 21 21 22 24 23 24 25 24 26 28 25 34 36 33 29 35 40
58 61 63 67 70 67 64 60 57 62 56 54 52 49 47 47 46 41 38 36 32 29 30 27 25 25 24 24 25 25 25 26 26 26 27 28 28 29 30 33 29 34 40 39 35 40 49
63 65 69 73 71 65 61 59 63 57 55 54 51 49 49 48 44 42 37 36 35 33 29 27 27 25 25 26 27 26 25 26 25 29 31 31 32 34 33 28 27 37 42 41 42 44 55
66 70 73 71 68 63 59 61 62 57 55 53 52 51 49 47 44 43 40 38 37 35 33 31 30 28 29 28 29 29 29 29 31 34 37 36 37 38 36 33 33 40 41 46 50 53 59
69 75 70 67 62 59 59 63 60 55 55 54 52 51 49 48 46 44 42 40 38 35 32 30 30 32 33 33 33 33 32 33 35 37 39 39 39 40 40 42 40 44 49 54 57 60 62
72 70 66 62 58 55 59 64 59 55 55 53 54 51 47 49 48 45 44 41 38 34 34 31 32 34 34 34 35 36 37 38 39 40 43 43 46 46 50 50 49 51 56 58 62 65 68
Wind_Direction
293 292 299 301 308 309 311 302 300 301 304 307 308 309 313 309 303 291 292 286 278 271 267 259 252 247 243 240 232 226 224 227 227 224 227 228 231 230 229 230 231 229 229 231 229 221 228
296 296 294 299 303 307 308 296 298 300 300 304 307 306 311 310 301 293 294 289 286 272 265 258 251 247 239 233 228 221 221 223 217 212 209 211 222 225 226 230 228 231 228 230 227 226 228
293 300 296 296 300 300 305 290 293 294 298 304 302 308 309 308 298 297 293 290 277 267 257 251 248 240 234 230 225 218 217 213 210 209 210 216 217 219 224 223 226 226 229 227 230 230 234
291 294 298 294 295 298 302 285 287 292 298 301 302 309 307 305 297 295 291 280 268 255 247 242 239 235 228 223 216 211 210 207 206 207 212 214 216 215 219 222 225 226 229 230 237 236 237
290 291 295 290 289 293 294 285 283 290 300 302 306 310 306 301 300 291 280 269 252 239 227 225 219 214 211 210 205 203 204 202 205 209 214 213 217 221 225 227 225 225 228 233 240 239 240
286 288 286 286 286 288 286 281 284 286 298 299 306 308 306 305 299 282 268 244 226 213 204 198 197 203 203 200 202 202 203 204 203 207 207 207 214 223 229 236 236 237 236 238 239 244 250
280 284 282 279 280 282 280 275 280 285 300 303 310 305 304 305 295 273 242 215 195 189 189 184 185 188 192 192 197 204 209 207 202 198 203 205 213 225 224 227 235 235 235 239 243 246 250
277 281 279 274 272 278 271 274 276 286 299 304 308 300 302 299 277 250 218 197 191 188 189 189 190 187 183 183 180 180 189 195 195 200 205 215 225 227 229 234 238 240 239 239 242 245 247
273 273 270 268 268 269 263 273 275 284 300 304 304 294 300 284 259 237 210 202 196 193 194 193 190 188 184 184 183 182 187 196 204 213 220 225 227 231 233 236 239 238 237 238 239 242 247
262 262 258 261 265 265 259 272 273 279 292 302 295 285 295 272 246 231 214 209 195 197 203 194 187 188 186 186 189 191 197 204 211 218 221 223 224 226 228 227 228 229 231 235 242 251 256
246 248 249 251 258 260 255 265 271 275 284 304 284 274 284 252 233 224 221 211 203 191 193 191 189 184 190 186 185 189 193 198 205 205 206 205 207 214 221 223 224 226 227 231 238 246 255
241 238 239 245 249 252 254 258 268 269 281 297 276 268 267 242 226 215 214 213 203 192 184 182 178 173 171 170 174 176 175 181 180 184 195 193 200 210 215 218 227 237 240 239 243 250 252
238 231 234 237 241 246 255 261 263 265 271 289 266 261 244 230 217 208 207 197 185 181 177 173 168 163 164 157 161 165 168 175 182 183 188 196 202 210 219 222 227 236 246 257 260 259 253
242 227 230 233 238 241 253 255 253 267 261 275 255 247 228 221 207 201 193 182 176 169 162 158 164 163 162 158 161 167 172 179 185 189 194 202 211 217 219 218 221 220 223 212 203 200 213
239 228 227 231 232 235 246 248 250 256 257 254 245 233 217 215 202 198 189 179 175 172 164 165 168 163 165 166 169 178 184 190 196 197 201 201 207 214 214 209 193 169 166 180 210 232 265
235 231 218 225 232 227 233 242 242 253 245 238 237 217 212 205 197 192 183 180 174 173 169 167 173 175 174 175 178 183 185 186 192 198 201 204 205 188 176 163 161 169 181 239 294 303 308
229 226 220 219 222 221 224 225 235 232 234 223 228 207 208 197 193 186 182 187 176 178 175 178 182 178 175 176 178 184 189 199 204 199 193 182 171 162 162 168 175 218 290 300 301 298 297
223 222 221 213 214 213 212 217 221 221 212 215 208 198 204 193 187 184 182 186 184 182 183 185 180 178 179 183 189 201 205 199 193 185 171 168 172 177 182 198 248 281 293 294 289 287 288
216 213 212 213 216 211 209 210 207 204 202 210 191 193 195 186 185 184 188 189 185 181 183 182 184 184 187 189 198 200 199 192 184 181 183 186 188 203 228 265 285 289 288 285 282 284 293
210 214 207 203 201 199 197 197 196 195 199 202 186 190 186 186 186 188 190 186 184 181 182 186 187 188 192 201 198 198 197 195 197 196 198 207 217 233 258 277 283 281 280 285 285 286 297
197 194 191 187 188 184 187 189 189 194 198 190 184 185 184 190 189 193 188 185 184 186 188 193 191 191 198 200 201 204 202 200 203 209 216 225 238 256 266 274 279 281 283 285 286 291 300
181 182 178 178 177 181 185 183 188 192 192 184 180 184 185 190 192 191 188 187 188 192 194 199 196 198 197 197 199 205 210 215 220 229 238 243 248 253 260 270 277 280 279 283 285 296 301
175 174 175 176 176 180 180 183 188 191 180 179 181 185 188 187 192 192 190 189 191 195 200 201 202 202 205 205 204 213 219 227 230 232 238 248 257 263 266 265 271 282 277 279 288 294 300
169 169 170 172 176 176 179 184 187 182 179 179 182 186 186 187 194 194 190 190 195 199 202 203 206 207 209 217 218 222 226 230 239 246 254 261 265 265 268 269 273 281 287 284 290 297 299
164 167 170 172 173 177 180 183 183 177 179 179 183 184 187 190 194 195 195 194 199 203 206 209 212 215 218 221 227 230 233 236 241 248 254 259 261 264 268 273 278 280 284 285 297 303 298
166 169 170 173 175 177 181 181 180 179 178 180 184 185 188 193 196 197 198 202 206 210 213 216 222 223 224 225 228 233 238 243 249 254 258 262 268 271 269 269 271 278 284 289 294 299 300
170 169 173 176 175 178 183 179 180 180 180 182 186 189 192 193 197 201 202 206 210 214 218 223 225 230 231 234 238 240 243 247 251 258 263 267 272 270 265 269 271 276 284 291 294 295 299
171 172 175 175 176 181 182 178 181 182 185 187 189 191 195 195 199 202 206 210 212 216 219 226 232 235 237 239 242 244 248 253 258 260 265 272 271 265 268 271 273 280 286 291 295 299 302
172 172 175 176 178 186 182 179 184 186 189 190 193 194 197 199 202 205 209 213 218 222 227 232 235 238 242 245 249 252 252 256 260 262 268 274 276 274 278 280 283 284 288 295 297 300 301
Height
10651 10650 10651 10652 10652 10652 10651 10639 10632 10625 10619 10612 10604 10598 10595 10587 10582 10579 10576 10574 10573 10572 10569 10569 10571 10574 10579 10585 10589 10598 10605 10613 10619 10625 10631 10638 10643 10649 10657 10663 10668 10672 10677 10684 10689 10697 10702
10638 10638 10638 10639 10641 10641 10643 10631 10625 10618 10612 10606 10597 10590 10586 10579 10575 10571 10568 10566 10565 10563 10562 10561 10562 10566 10572 10577 10584 10592 10600 10608 10614 10619 10626 10633 10638 10647 10653 10657 10662 10666 10670 10676 10682 10690 10697
10624 10626 10625 10627 10625 10630 10635 10624 10616 10610 10604 10598 10590 10583 10578 10572 10569 10564 10562 10559 10556 10555 10555 10555 10557 10560 10566 10571 10578 10586 10594 10601 10608 10614 10622 10630 10635 10641 10646 10652 10656 10659 10665 10672 10680 10687 10691
10610 10611 10613 10614 10615 10617 10623 10616 10607 10602 10596 10590 10582 10577 10571 10567 10563 10558 10555 10553 10550 10550 10551 10552 10554 10558 10563 10567 10574 10581 10588 10596 10603 10611 10618 10623 10630 10636 10641 10647 10652 10658 10663 10670 10673 10680 10684
10596 10597 10600 10602 10605 10606 10613 10606 10599 10594 10590 10582 10575 10570 10564 10562 10556 10551 10549 10546 10546 10548 10549 10551 10554 10556 10560 10566 10572 10578 10586 10593 10600 10607 10615 10621 10627 10633 10638 10641 10649 10655 10662 10666 10669 10672 10674
10582 10587 10589 10591 10592 10593 10601 10597 10592 10586 10583 10575 10569 10564 10559 10556 10551 10547 10544 10544 10546 10548 10549 10551 10554 10558 10562 10567 10573 10577 10584 10590 10598 10605 10613 10619 10624 10629 10634 10639 10645 10651 10657 10660 10664 10667 10668
10566 10570 10577 10579 10581 10581 10587 10585 10583 10580 10576 10569 10564 10559 10556 10553 10549 10545 10543 10545 10546 10548 10550 10552 10556 10558 10562 10567 10573 10579 10586 10593 10599 10606 10611 10618 10623 10627 10631 10633 10636 10643 10650 10656 10659 10660 10662
10549 10551 10557 10562 10567 10570 10575 10572 10574 10572 10568 10564 10559 10556 10554 10551 10549 10547 10546 10546 10547 10548 10551 10554 10557 10560 10563 10566 10571 10578 10586 10592 10598 10603 10609 10615 10618 10621 10625 10630 10634 10639 10644 10650 10653 10653 10655
10531 10534 10539 10543 10550 10557 10561 10561 10563 10564 10561 10558 10555 10552 10552 10550 10550 10549 10547 10548 10548 10550 10553 10556 10559 10562 10565 10568 10573 10578 10584 10590 10595 10600 10605 10610 10614 10618 10623 10626 10631 10636 10641 10643 10644 10646 10650
10508 10514 10522 10527 10532 10542 10549 10549 10554 10555 10553 10552 10550 10550 10550 10548 10549 10549 10548 10548 10549 10551 10554 10557 10560 10563 10566 10570 10574 10579 10584 10589 10593 10598 10603 10607 10611 10615 10618 10623 10627 10631 10635 10638 10639 10642 10643
10484 10494 10503 10512 10519 10527 10536 10538 10544 10547 10545 10544 10546 10547 10547 10548 10548 10547 10549 10549 10550 10552 10555 10558 10560 10562 10566 10571 10575 10579 10584 10588 10592 10597 10601 10605 10609 10611 10615 10619 10624 10626 10630 10633 10636 10637 10637
10462 10470 10483 10494 10503 10513 10523 10526 10533 10538 10538 10538 10541 10544 10544 10546 10546 10547 10549 10550 10551 10552 10555 10557 10561 10564 10567 10571 10575 10579 10583 10587 10590 10594 10599 10602 10606 10609 10612 10615 10618 10622 10625 10628 10631 10633 10632
10434 10447 10461 10474 10486 10500 10509 10516 10524 10528 10531 10531 10536 10541 10541 10544 10544 10546 10548 10549 10551 10553 10555 10559 10562 10565 10568 10572 10576 10580 10584 10588 10591 10594 10598 10602 10605 10608 10610 10613 10616 10619 10621 10624 10626 10627 10629
10401 10427 10441 10455 10470 10486 10496 10506 10513 10519 10523 10525 10531 10536 10538 10541 10542 10545 10547 10550 10552 10555 10557 10561 10565 10567 10571 10574 10577 10580 10584 10588 10591 10594 10598 10601 10604 10607 10610 10612 10615 10617 10620 10622 10623 10625 10626
10376 10406 10422 10438 10453 10471 10485 10495 10502 10509 10514 10518 10527 10531 10535 10538 10541 10544 10547 10549 10553 10556 10559 10562 10566 10568 10572 10574 10578 10581 10585 10588 10591 10594 10597 10599 10602 10606 10608 10610 10612 10615 10618 10620 10622 10623 10624
10359 10383 10405 10420 10438 10456 10472 10483 10491 10500 10505 10512 10521 10525 10530 10535 10539 10543 10546 10550 10553 10557 10560 10563 10567 10570 10572 10575 10579 10582 10585 10588 10591 10594 10596 10599 10602 10604 10606 10609 10612 10614 10616 10618 10618 10618 10618
10342 10371 10389 10406 10422 10440 10456 10470 10481 10490 10497 10505 10515 10521 10527 10531 10536 10541 10545 10549 10553 10558 10561 10563 10567 10570 10573 10576 10579 10582 10585 10588 10590 10593 10595 10598 10601 10603 10606 10609 10611 10612 10613 10614 10615 10615 10615
10333 10353 10373 10393 10408 10425 10441 10455 10468 10478 10487 10501 10509 10516 10523 10528 10534 10539 10544 10549 10553 10556 10560 10564 10568 10571 10574 10577 10581 10583 10586 10587 10590 10592 10595 10598 10601 10604 10606 10607 10609 10610 10611 10611 10611 10612 10612
10316 10343 10361 10378 10394 10411 10427 10442 10455 10468 10480 10492 10502 10510 10518 10524 10531 10537 10542 10547 10551 10555 10559 10564 10568 10571 10575 10578 10580 10583 10585 10587 10589 10592 10595 10598 10600 10602 10604 10606 10606 10607 10607 10608 10608 10608 10607
10311 10331 10348 10365 10382 10400 10416 10432 10446 10458 10473 10485 10493 10505 10514 10521 10527 10534 10540 10545 10549 10554 10558 10563 10567 10570 10574 10577 10579 10581 10584 10587 10589 10592 10595 10597 10599 10601 10602 10603 10604 10604 10604 10603 10603 10602 10601
10311 10325 10340 10357 10374 10391 10409 10425 10439 10452 10468 10479 10490 10502 10510 10520 10527 10532 10538 10542 10547 10552 10557 10562 10566 10569 10572 10575 10578 10580 10583 10586 10589 10591 10593 10595 10597 10598 10599 10600 10600 10600 10598 10597 10595 10594 10592
10306 10321 10337 10354 10371 10389 10405 10418 10433 10450 10465 10476 10488 10497 10506 10512 10521 10528 10535 10540 10545 10550 10555 10559 10563 10567 10571 10574 10577 10579 10583 10585 10588 10590 10591 10593 10594 10595 10596 10596 10596 10594 10592 10591 10588 10587 10585
10304 10320 10336 10353 10369 10385 10401 10416 10432 10448 10461 10472 10481 10491 10500 10510 10520 10528 10532 10536 10541 10547 10552 10557 10561 10566 10569 10572 10575 10578 10581 10583 10585 10586 10587 10588 10589 10590 10590 10590 10591 10587 10585 10584 10583 10580 10577
10306 10320 10336 10352 10368 10384 10399 10414 10431 10445 10456 10465 10476 10487 10498 10509 10517 10521 10527 10533 10539 10544 10549 10553 10558 10562 10566 10569 10572 10574 10577 10579 10580 10581 10582 10583 10583 10584 10583 10583 10584 10577 10574 10575 10576 10572 10567
10308 10323 10337 10353 10369 10384 10399 10414 10427 10441 10451 10462 10472 10484 10494 10503 10509 10518 10526 10530 10536 10541 10545 10550 10555 10558 10562 10565 10567 10570 10571 10573 10574 10576 10576 10576 10576 10576 10576 10574 10576 10571 10565 10564 10565 10563 10554
10311 10325 10340 10355 10369 10385 10399 10411 10426 10439 10449 10460 10471 10481 10490 10498 10508 10514 10522 10527 10532 10537 10542 10547 10550 10554 10557 10560 10562 10565 10567 10568 10569 10569 10568 10569 10569 10568 10567 10567 10567 10562 10556 10555 10554 10555 10543
10316 10329 10344 10358 10371 10386 10399 10411 10426 10437 10447 10457 10468 10478 10486 10496 10504 10511 10517 10522 10527 10532 10537 10542 10545 10549 10552 10555 10557 10559 10561 10562 10562 10561 10560 10561 10560 10559 10556 10558 10558 10551 10549 10545 10543 10540 10534
10320 10333 10348 10362 10375 10387 10398 10412 10425 10436 10444 10454 10465 10474 10483 10492 10499 10507 10512 10518 10522 10527 10532 10537 10540 10543 10546 10548 10550 10552 10555 10555 10554 10553 10552 10551 10550 10548 10548 10546 10547 10541 10538 10534 10529 10524 10519
10326 10339 10352 10365 10378 10389 10398 10411 10423 10432 10441 10453 10462 10471 10480 10488 10495 10501 10507 10513 10518 10523 10526 10530 10533 10535 10538 10541 10543 10545 10546 10546 10546 10546 10542 10542 10539 10539 10536 10533 10532 10530 10525 10521 10514 10510 10503